ARSAT 1

Last updated on Sun Apr 12 2026 00:02:53 GMT+0000 (Coordinated Universal Time)

1 40272U 14062B 26101.50647734 -.00000258 00000+0 00000+0 0 9998 2 40272 0.0215 290.3137 0001731 89.1114 290.8208 1.00273197 41954
UTC large
Height (km)
Speed (km/s)
/
Latitude / Longitude
Inclination (degrees)
Orbital Period (minutes)
Azimuth
Elevation
Range (km)
Doppler Factor

Next 0 passes for location: London (51.5072 / 0.1276)

Sorry there are no passes over London.
ARSAT 1